Volver al catálogo

COSMOS 839 DEB

ActivoUNKNOWN
NORAD 10466·DEBRIS·🇷🇺 Russia

Lanzado Jul 8, 1976 desde Plesetsk Cosmodrome

Loading…

Próximos Pases (próximas 24 horas)

TLE

ActualizadoSource: Space-Track

Época: Sep 14, 2026, 14:10 UTC

1 10466U 76067AK  26257.59076654  .00000118  00000-0  46311-3 0  9995
2 10466  65.8325 237.0571 0703331 124.1411 348.8492 12.50191879282951

Sigue COSMOS 839 DEB en tiempo real con AllMySat

Download on the App Store